Погода Ордынское

Погода Ордынское : погода сейчас, прогноз погоды и архив. Всё, что Вы хотите узнать о погоде Ордынское!

Хотите узнать прогноз погоды Ордынское? Тогда Вам сюда: Погода Ордынское

Поиск расширенной информации на нашем сайте:

Другие новости

Новости СМИ2

Главная страница сайта

Новости сайта

03.07.2017

Напоминаем, что на нашем специализированном сайте Метеоцентр.Азия вы можете получить высокодетализированные автоматические прогнозы погоды по пунктам России, СНГ и мира в авиационном формате (включающие направление и скорость ветра, видимость, явления погоды, количество и форму облачности, нижнюю и верхнюю границу облачности).

Рекомендуем: Подробное описание Оборудование для производства простокваши у нас.

Погода Ордынское - сегодня

Время (UTC), дата Ветер
(°,м/с) 
Видим.   Явления Облачность Т
(°С)
Тd
(°С)
f(%) Тe
(°С)
Pmin
(гПа)
dP
(гПа)
Po
(мм)
O2
(г/м3)
Тmin Tmax R s Состояние
почвы
03 23.07.17 180 (Ю) 20000 м  {ливн. осадки}  9/3 600 м кучево-дожд., средняя, верхняя 
[Cb calv|Ac As|Cc]
+20.4 +16.9 80 +33  1010.1  746  276           
06 23.07.17 360 (С) 20000 м  гроза без осадков{ливн. осадки}  9/8 600 м кучево-дожд., верхняя 
[Cb calv|Ci]
+23.2 +15 60 +32  1009.5  -0.5  746  274           
09 23.07.17 230 (ЮЗ) 20000 м  {гроза, ливн. осадки}  10/5 600 м кучево-дожд., средняя, верхняя 
[Cb calv|Ac As|Ci sp]
+19.7 +15.6 77 +31  1009.8  0.1  746  277           
12 23.07.17 200 (Ю) 20000 м  {гроза, ливн. осадки}  9/5 600 м кучево-дожд., верхняя 
[Cb calv|Ci fib]
+23.4 +15.5 61 +33  1009.5  -0.1  746  274    +23.7     
15 23.07.17 тихо ()   20000 м    4/3 1000 м кучево-дожд., средняя 
[Cb calv|Ac trans]
+19.5 +15.4 77 +29  1010.2  0.5  746  277           
18 23.07.17 тихо ()   20000 м    ясно 
+15.5 +13.9 90 +22  1010.2  -0.2  746  282           
21 23.07.17 320 (СЗ) 20000 м    4/0 верхняя 
[Ci fib]
+14 +12.7 92 +20  1010  -0.3  746  283           
00 24.07.17 тихо ()   20000 м    10/0 верхняя 
[Ci]
+14.1 +12.9 92 +19  1010.1  0.1  746  283  +13        влажная 
03 24.07.17 170 (Ю) 20000 м    4/0 верхняя 
[Ci fib]
+22.6 +16.8 70 +35  1008.4  -1.2  745  274           
06 24.07.17 200 (Ю) 20000 м    10/4 600 м кучево-дожд., верхняя 
[Cb calv|Ci]
+25.3 +15.4 54 +35  1008.1  -0.2  745  271           
09 24.07.17 170 (Ю) 20000 м    10/3 600 м кучево-дожд., средняя, верхняя 
[Cb calv|Ac As|Ci sp]
+25 +15.8 57 +35  1006.8  -1.3  744  271           
12 24.07.17 140 (ЮВ) 20000 м    10/6 600 м кучево-дожд., средняя 
[Cb calv|Ac As]
+23.6 +16.5 64 +35  1005.2  -1.6  743  272    +25.7       
15 24.07.17 110 (В) 20000 м  {ливн. осадки}  10/9 600 м кучево-дожд., верхняя 
[Cb calv|Ci fib]
+21.8 +16.6 72 +34  1004.6  -0.7  742  273           
18 24.07.17 130 (ЮВ) 20000 м  в посл. час гроза{ливн. осадки}  10/10 600 м кучево-дожд. 
[Cb calv]
+21 +16.4 75 +33  1001.6  -3  740  273           
21 24.07.17 150 (ЮВ) 2{11}  20000 м  зарница  3/3 600 м кучево-дожд. 
[Cb calv]
+20.2 +15.3 73 +30  999.7  -1.8  738  274           
00 25.07.17 240 (ЮЗ) 20000 м    3/0 верхняя 
[Ci fib]
+19.5 +15.1 76 +29  999.5  -0.3  738  274  +19.5    0.4    влажная 
03 25.07.17 230 (ЮЗ) 20000 м    8/8 600 м кучево-дожд. 
[Cb calv]
+21 +15.2 69 +30  1000  0.6  739  273  +19.3         
06 25.07.17 260 (З) 4-10{10}  20000 м    8/8 600 м кучево-дожд. 
[Cb calv]
+21.4 +14.4 64 +29  1001.4  1.3  740  273           
09 25.07.17 270 (З) 4{10}  20000 м    10/10 600 м кучево-дожд. 
[Cb calv]
+21.2 +15 68 +21               
12 25.07.17 260 (З) 20000 м    9/9 1000 м 
[Sc]
+21.2 +15.3 69 +31  1002.8  0.2  741  274    +22.3       
15 25.07.17 270 (З) 20000 м    6/4 1000 м средняя 
[Sc|Ac As]
+19.5 +15.6 78 +31  1003.2  0.3  741  275           
18 25.07.17 250 (З) 20000 м    3/3 1000 м средняя 
[Sc|Ac As]
+17.8 +15.1 84 +28  1003.5  0.2  741  277           
21 25.07.17 240 (ЮЗ) 20000 м    10/4 600 м кучево-дожд., средняя, верхняя 
[Cb calv|Ac und|Ci]
+17.8 +15.6 87 +29  1003.7  0.2  741  277           
00 26.07.17 тихо ()   20000 м    10/3 1000 м средняя, верхняя 
[Sc|Ac As|Ci fib]
+16.6 +15 90 +26  1004  0.3  741  278  +15.8        сухая 
03 26.07.17 230 (ЮЗ) 20000 м    ясно 
+21.8 +16.7 73 +34  1005.1  1.3  742  273           
Время (UTC), дата Ветер
(°,м/с) 
Видим.   Явления Облачность Т
(°С)
Тd
(°С)
f(%) Тe
(°С)
Pmin
(гПа)
dP
(гПа)
Po
(мм)
O2
(г/м3)
Тmin Tmax R s Состояние
почвы

Для получения пояснительной информации подведите курсор к названию столбца.

ПОГОДА Ордынское - архив

Всё, что Вы хотите узнать о погоде Ордынское - удобно и подробно!

Выберите нужную дату (начиная с 1 января 2015* года) и нажмите кнопку "Найти".
Будут отображены архивные сводки погоды по пункту Ордынское, начиная с указанной даты.


Отображать данные в формате CSV (для использования в таблицах Excel)


Внимание! Наш архив погоды предназначен исключительно для личного некоммерческого использования в познавательных целях. Если Вам необходимы официальные справки о состоянии погоды (для производственных, юридических, коммерческих и т.п. целей), обращайтесь в органы Росгидромета.

*Примечание: данная дата относится к архиву по метеостанциям СССР (Россия, СНГ, Балтия).
Архив по метеостанциям Зарубежной Европы и Азии (кроме Китая) хранится 10 дней, по другим регионам земного шара (Китай, Африка, Америка, Австралия, Океания) - 1 день.

Ордынское - район местоположения метеостанции


Название, широта, долгота, высота метеостанции:
Ордынское 54.4°ш. 81.9°д. 134 м над ур. моря [Российская Федерация]

Дополнительная информация

В oтличие oт бoльшинства пoгoдных сайтoв мы публикуем пoдрoбную метеoинфoрмацию в детальнoм прoфессиoнальнoм фoрмате.

Характеристики температуры и влажнoсти вoздуха измеряются на высoте 2 м в тени вдали oт зданий и деревьев.
Скoрoсть ветра измеряется на высoте 10 м (на урoвне рoста челoвека скoрoсть ветра ниже в 1.5-2 раза). Если метеoстанция нахoдится в гoрoде или в лесу, тo скoрoсть ветра занижена на 2-4 м/с пo сравнению с oткрытым местoм. Скoрoсть ветра над акватoриями крупных рек и oзёр, а также на вершинах хoлмoв на 2-5 м/с выше, чем в oбычных услoвиях.
Атмoсфернoе давление в разных тoчках местнoсти мoжет значительнo oтличаться oт давления на метеoстанции, в зависимoсти oт услoвий рельефа (при пoдъёме на 10 м давление пoнижается примернo на 1 мм рт.ст.).